South Portland, ME

7:27 PM EST on December 10, 2016 (GMT -0500)
Portland International

Weather History for KPWM - January, 2014

Change the Weather History Date:

Tuesday, January 7, 2014

  Actual Average Record
Temperature  
Mean Temperature 17 °F 23 °F  
Max Temperature 29 °F 31 °F 51 °F (1933)
Min Temperature 5 °F 14 °F -10 °F (1941)
Degree Days  
Heating Degree Days 48 42  
Month to date heating degree days 361 292  
Since 1 July heating degree days 3063 2904  
Cooling Degree Days 0 0  
Month to date cooling degree days 0 0  
Year to date cooling degree days 0 0  
Moisture  
Dew Point -4 °F    
Average Humidity 50    
Maximum Humidity 63    
Minimum Humidity 36    
Precipitation  
Precipitation 0.00 in 0.11 in 1.45 in (1969)
Month to date precipitation 2.01 0.79  
Year to date precipitation 2.01 0.79  
Snow  
Snow 0.00 in 0.60 in 12.70 in (1977)
Month to date snowfall 11.9 4.3  
Since 1 July snowfall 38.6 19.4  
Snow Depth 7.00 in    
Sea Level Pressure  
Sea Level Pressure 29.80 in    
Wind  
Wind Speed 17 mph (West)    
Max Wind Speed 29 mph    
Max Gust Speed 40 mph    
Visibility 10 miles    
Events      
T = Trace of Precipitation, MM = Missing Value Source: NWS Daily Summary

Daily Weather History Graph

Daily Weather History Graph

Search for Another Location

Airport or City:

Trip Planner

Search our weather history database for the weather conditions in past years. The results will help you decide how hot, cold, wet, or windy it might be!

Date:

Astronomy

Jan. 07, 2014 Rise Set
Actual Time 7:14 AM EST 4:20 PM EST
Civil Twilight 6:42 AM EST 4:53 PM EST
Nautical Twilight 6:06 AM EST 5:29 PM EST
Astronomical Twilight 5:31 AM EST 6:03 PM EST
Moon 10:47 AM EST (1/7) No Moon Set
Length of Visible Light 10h 11m
Length of Day
9h 06m
Waxing Crescent, 45% of the Moon is Illuminated
Jan 7
Waxing Crescent
Jan 7
First Quarter
Jan 15
Full
Jan 24
Last Quarter
Jan 30
New

Hourly Weather History & Observations

Time (EST) Temp. Windchill Dew Point Humidity Pressure Visibility Wind Dir Wind Speed Gust Speed Precip Events Conditions
12:51 AM 28.9 °F 18.2 °F 10.9 °F 47% 29.41 in 10.0 mi West 13.8 mph 27.6 mph N/A   Clear
1:51 AM 27.0 °F 16.1 °F 16.0 °F 63% 29.45 in 10.0 mi West 12.7 mph - N/A   Partly Cloudy
2:51 AM 25.0 °F 13.1 °F 12.0 °F 58% 29.48 in 10.0 mi West 13.8 mph 29.9 mph N/A   Partly Cloudy
3:51 AM 24.1 °F 9.4 °F 5.0 °F 44% 29.50 in 10.0 mi West 20.7 mph 27.6 mph N/A   Scattered Clouds
4:51 AM 21.0 °F 6.2 °F 1.0 °F 42% 29.54 in 10.0 mi West 18.4 mph 27.6 mph N/A   Mostly Cloudy
5:51 AM 19.0 °F 5.0 °F -2.0 °F 40% 29.57 in 10.0 mi West 15.0 mph - N/A   Overcast
6:51 AM 15.1 °F -2.5 °F -2.9 °F 45% 29.61 in 10.0 mi West 20.7 mph 34.5 mph N/A   Mostly Cloudy
7:51 AM 14.0 °F -3.9 °F -4.0 °F 45% 29.67 in 10.0 mi West 20.7 mph 29.9 mph N/A   Partly Cloudy
8:51 AM 14.0 °F -1.4 °F -5.1 °F 43% 29.73 in 10.0 mi West 15.0 mph 31.1 mph N/A   Partly Cloudy
9:51 AM 14.0 °F -3.0 °F -4.0 °F 45% 29.77 in 10.0 mi West 18.4 mph 27.6 mph N/A   Partly Cloudy
10:51 AM 14.0 °F -3.4 °F -5.1 °F 43% 29.79 in 10.0 mi West 19.6 mph 32.2 mph N/A   Scattered Clouds
11:51 AM 14.0 °F -3.9 °F -5.1 °F 43% 29.80 in 10.0 mi West 20.7 mph 33.4 mph N/A   Mostly Cloudy
12:51 PM 15.1 °F 0.5 °F -6.0 °F 39% 29.81 in 10.0 mi West 13.8 mph 35.7 mph N/A   Scattered Clouds
1:51 PM 15.1 °F -1.1 °F -8.0 °F 36% 29.84 in 10.0 mi West 17.3 mph 29.9 mph N/A   Scattered Clouds
2:51 PM 14.0 °F -3.4 °F -9.0 °F 35% 29.87 in 10.0 mi West 19.6 mph 31.1 mph N/A   Scattered Clouds
3:51 PM 12.0 °F -6.0 °F -9.9 °F 37% 29.91 in 10.0 mi West 19.6 mph 31.1 mph N/A   Scattered Clouds
4:51 PM 10.0 °F -8.6 °F -11.0 °F 38% 29.94 in 10.0 mi West 19.6 mph 29.9 mph N/A   Partly Cloudy
5:51 PM 9.0 °F -8.5 °F -11.9 °F 38% 29.99 in 10.0 mi West 16.1 mph 25.3 mph N/A   Clear
6:51 PM 8.1 °F -7.7 °F -11.9 °F 40% 30.02 in 10.0 mi WSW 12.7 mph 25.3 mph N/A   Clear
7:51 PM 7.0 °F -12.6 °F -11.0 °F 44% 30.03 in 10.0 mi WSW 19.6 mph 29.9 mph N/A   Clear
8:51 PM 6.1 °F -12.2 °F -11.0 °F 45% 30.06 in 10.0 mi SW 16.1 mph 23.0 mph N/A   Clear
9:51 PM 6.1 °F -11.6 °F -11.9 °F 44% 30.09 in 10.0 mi SW 15.0 mph - N/A   Clear
10:51 PM 5.0 °F -10.0 °F -11.9 °F 46% 30.09 in 10.0 mi West 10.4 mph 19.6 mph N/A   Clear
11:51 PM 5.0 °F -10.8 °F -11.0 °F 48% 30.10 in 10.0 mi SW 11.5 mph - N/A   Clear